Location: ?????????
(54.6075°N, 39.0847°E)
Time: 05:56:02
(UTC+00:00)

Daily predictions for brighter satellites

Satellite Brightness Start Highest point End
(mag) Time Altitude Azimuth Time Altitude Azimuth Time Altitude Azimuth
Cosmos 2237 Rocket 4.4 00:13:50 18° ESE 00:14:11 18° E 00:17:55 10° ENE
Cosmos 2369 Rocket 4.2 00:17:55 24° NE 00:17:55 24° NE 00:22:04 10° E
ADEOS Rocket 4.0 00:15:40 10° NNE 00:21:56 51° E 00:21:56 51° E
ADEOS II 4.5 00:17:53 10° NNE 00:19:01 17° NNE 00:19:01 17° NNE
Cosmos 2360 Rocket 4.2 00:29:09 22° NNE 00:29:09 22° NNE 00:31:11 10° NNE
Cosmos 2322 Rocket 4.1 00:34:11 23° NNE 00:34:11 23° NNE 00:36:20 10° NNE
Cosmos 2333 Rocket 4.1 00:35:28 23° NNE 00:35:28 23° NNE 00:37:43 10° NNE
SJ 16-02 4.2 00:38:25 12° E 00:38:25 12° E 00:38:56 10° ESE
USA 234 3.8 00:30:19 10° ESE 00:35:06 52° ESE 00:35:06 52° ESE
CZ-2D R/B 4.4 00:35:45 10° NNE 00:36:48 16° NNE 00:36:48 16° NNE
ACS3 Solar Sail 2.7 00:35:45 10° NNE 00:39:55 44° NE 00:39:55 44° NE
SL-16 R/B 4.2 00:44:51 21° N 00:44:51 21° N 00:46:58 10° NNE
COSMOS 2455 4.2 00:46:06 33° NNE 00:46:06 33° NNE 00:49:33 10° NE
Resurs 1-4 Rocket 4.3 00:48:08 10° N 00:49:17 17° N 00:49:17 17° N
Cosmos 1725 Rocket 4.4 00:52:38 10° N 00:58:56 60° ENE 01:05:10 10° SSE
Cosmos 2219 Rocket 3.5 01:03:00 31° NNE 01:03:00 31° NNE 01:06:06 10° NNE
NOSS 3-1 (C) 3.9 01:03:05 49° ENE 01:03:05 49° ENE 01:07:36 10° NE
Cosmos 1727 Rocket 4.4 01:07:36 55° NNE 01:07:36 55° NNE 01:12:25 10° NNE
Lacrosse 4 Rocket 4.0 01:11:04 15° NE 01:11:04 15° NE 01:12:35 10° NE
NOSS 3-2 (C) 4.4 01:11:41 39° N 01:12:24 41° N 01:19:30 10° ENE
Lacrosse 5 rocket 4.1 01:16:10 13° E 01:16:10 13° E 01:16:38 10° E
H-2A R/B 3.7 01:14:46 10° NNE 01:16:39 23° N 01:16:39 23° N
Cosmos 1802 Rocket 4.1 01:13:55 10° N 01:21:19 66° SSE 01:26:36 10° S
NOSS 0 Rocket 4.1 01:20:16 64° SSE 01:20:46 67° ESE 01:26:54 10° NE
Cosmos 1000 Rocket 4.4 01:28:39 85° WSW 01:28:43 86° W 01:35:07 10° N
NOSS 3-2 (A) 4.3 01:31:49 39° NNW 01:34:00 52° NNE 01:41:51 10° E
COSMOS 2428 2.8 01:39:07 63° N 01:39:07 63° N 01:44:09 10° NNE
Meteor 2-5 Rocket 3.8 01:37:02 44° S 01:39:00 78° E 01:44:47 10° NNE
Cosmos 1980 Rocket 4.2 01:38:37 15° N 01:39:09 15° N 01:42:25 10° NNE
Cosmos 2322 4.0 01:40:27 55° N 01:40:27 55° N 01:45:13 10° NNE
USA 267 4.1 01:34:24 10° ENE 01:40:35 42° SE 01:44:05 24° SSW
CZ-2C R/B 2.6 01:36:11 10° NNE 01:41:15 71° ESE 01:42:20 54° SSE
Cosmos 1980 3.8 01:40:46 55° S 01:41:55 71° ESE 01:47:36 10° NE
Cosmos 2123 Rocket 3.9 01:39:50 34° S 01:42:45 87° ESE 01:48:58 10° NNE
Cosmos 2016 Rocket 3.9 01:37:42 10° NNW 01:44:06 79° W 01:50:26 10° S
NOSS 3-1 (A) 3.0 01:50:03 67° S 01:50:40 77° SE 01:56:45 10° NE
Cosmos 1939 Rocket 3.7 01:47:04 10° NNE 01:50:48 45° E 01:51:20 42° SE
Meteor 2-21 4.3 01:50:58 66° WNW 01:50:58 66° WNW 01:56:58 10° N
Cosmos 2084 4.4 01:52:25 38° NNE 01:52:25 38° NNE 01:56:02 10° E
Cosmos 1190 Rocket 4.2 01:54:10 57° SSW 01:54:10 57° SSW 01:58:28 10° SSE
Cosmos 676 Rocket 3.9 01:54:26 55° NNW 01:55:37 84° ENE 02:00:50 10° SSE
Cosmos 2297 4.1 01:54:05 30° NNW 01:56:49 62° NE 02:02:24 10° SE
CENTAUR R/B 3.2 01:52:52 35° NW 01:56:51 83° NE 02:06:08 10° SE
Cosmos 2237 Rocket 2.2 01:55:42 47° SSW 01:57:25 82° ESE 02:03:06 10° NE
ARGOS 3.0 01:52:14 10° NNE 01:57:42 79° WNW 01:58:54 55° SW
ADEOS II 3.8 01:57:57 10° N 01:59:50 19° NNW 01:59:50 19° NNW
Cosmos 2369 Rocket 2.4 01:59:43 30° NNW 02:02:34 68° NE 02:08:16 10° SE
USA 238 DEB 4.5 02:03:31 32° NW 02:05:50 41° N 02:12:51 10° ENE
USA 238 4.5 02:03:37 32° NW 02:05:56 41° N 02:12:57 10° ENE
Cosmos 1954 Rocket 3.8 02:07:31 65° WSW 02:07:38 65° WSW 02:12:43 10° SSE
ADEOS Rocket 3.5 02:01:25 10° N 02:07:44 47° WNW 02:08:51 44° W
Cosmos 2056 Rocket 4.4 02:03:34 10° S 02:08:46 51° ESE 02:13:59 10° NE
Cosmos 2360 Rocket 3.6 02:10:54 22° NNW 02:10:54 22° NNW 02:15:04 10° NNE
Meteor 2-16 Rocket 4.3 02:05:47 12° SSW 02:11:28 73° WNW 02:17:39 10° N
SJ 16-02 1.8 02:15:02 44° SSW 02:15:02 44° SSW 02:18:09 10° S
Cosmos 2322 Rocket 3.7 02:15:59 21° NNW 02:16:06 21° NNW 02:20:20 10° NNE
IRS-1D 4.2 02:11:34 10° NNE 02:16:26 51° E 02:21:12 10° S
SKYMED 2 3.6 02:13:24 10° SSE 02:17:44 79° ENE 02:21:03 17° NNW
Cosmos 2333 Rocket 3.8 02:17:29 20° NNW 02:17:55 20° NNW 02:22:05 10° NNE
CZ-2D R/B 4.0 02:16:45 10° N 02:18:02 14° NNW 02:18:02 14° NNW
USA 234 3.5 02:13:54 10° SE 02:20:16 52° SW 02:22:27 38° W
NOSS 2-2 (E) 4.0 02:23:27 37° N 02:24:09 42° NNE 02:28:15 10° ESE
ACS3 Solar Sail 2.4 02:19:06 10° N 02:24:02 34° NW 02:24:02 34° NW
SeaSat 1 4.2 02:21:26 10° NNE 02:24:16 17° NNW 02:24:16 17° NNW
COSMO-SKYMED 1 2.7 02:20:40 10° SSE 02:24:45 68° ENE 02:28:38 11° N
USA 59 Rocket 1.1 02:28:26 20° NNE 02:28:26 20° NNE 02:29:50 10° NE
SL-16 R/B 4.0 02:26:41 16° NNW 02:27:42 17° NNW 02:31:18 10° NNE
Cosmos 1371 Rocket 4.4 02:22:53 10° SSW 02:28:08 67° ESE 02:33:28 10° NNE
Cosmos 968 Rocket 3.5 02:25:09 20° NNW 02:28:53 82° ENE 02:34:08 10° SSE
COSMOS 2455 4.1 02:29:13 24° NW 02:30:54 27° NNW 02:35:59 10° NE
Cosmos 1741 Rocket 4.3 02:26:44 15° NNW 02:31:10 68° ENE 02:36:27 10° SE
Resurs 1-4 Rocket 4.1 02:29:15 10° NNW 02:30:19 13° NNW 02:30:19 13° NNW
Cosmos 371 Rocket 3.4 02:32:57 45° W 02:33:36 48° WSW 02:38:15 10° S
Cosmos 2061 Rocket 4.0 02:29:40 10° NNW 02:35:40 53° W 02:41:39 10° SSW
Cosmos 1891 Rocket 4.5 02:29:49 10° NNW 02:36:14 88° W 02:42:30 10° S
CZ-4 R/B 4.1 02:33:34 10° NNE 02:38:27 70° ESE 02:43:12 10° S
Cosmos 2292 Rocket 4.4 02:35:23 14° SW 02:39:54 54° WNW 02:46:28 10° N
Aureole 3 Rocket 3.6 02:35:20 10° NNW 02:40:06 76° W 02:46:48 10° S
Cosmos 1656 Rocket 4.0 02:38:46 33° WNW 02:40:41 45° WSW 02:46:03 10° S
NOAA 12 4.4 02:36:03 10° NNE 02:41:24 69° ESE 02:46:42 10° S
Gbstr 26 Del rocket 3.7 02:39:58 35° WSW 02:42:07 66° S 02:48:12 10° ESE
Cosmos 304 Rocket 4.1 02:41:42 39° W 02:42:10 40° WSW 02:46:36 10° S
Meteor 1-24 Rocket 4.1 02:41:06 34° W 02:42:18 38° WNW 02:47:23 10° N
Cosmos 2219 Rocket 3.6 02:44:42 20° NW 02:45:40 21° NNW 02:49:58 10° NNE
Cosmos 2233 Rocket 4.3 02:40:40 10° NNW 02:46:32 42° W 02:52:20 10° SSW
Cosmos 1400 Rocket 2.5 02:44:17 17° NNW 02:47:07 88° ENE 02:50:48 10° SSE
Lacrosse 4 Rocket 2.3 02:46:36 19° NNW 02:49:01 40° NE 02:52:46 10° ESE
Cosmos 2151 Rocket 3.6 02:45:04 10° N 02:49:36 83° ENE 02:54:04 10° SSE
Cosmos 1484 Rocket 4.2 02:47:01 10° NNE 02:50:19 35° E 02:53:36 10° SSE
Lacrosse 5 rocket 0.7 02:49:50 55° W 02:50:28 76° SSW 02:53:47 10° ESE
In-Cosmos 22 Rocket 4.3 02:45:15 10° S 02:51:05 85° ESE 02:56:54 10° NNE
USA 306 3.2 02:50:32 28° SSW 02:51:52 46° SSE 02:55:34 10° E
NOSS 3-1 (C) 3.8 02:50:25 29° WNW 02:52:46 44° NNW 02:59:07 10° NE
NOSS 2-2 (C) 3.3 02:53:25 36° WNW 02:54:52 76° SW 02:59:41 10° SE
Cosmos 1869 4.4 02:56:59 22° SW 02:56:59 22° SW 02:58:36 10° SSW
Cosmos 1447 Rocket 4.4 02:50:03 10° SSW 02:56:18 72° WNW 03:02:40 10° N
Sich 1 Rocket 4.0 02:52:05 10° N 02:56:40 68° ENE 03:01:08 10° SSE
H-2A R/B 3.7 02:55:13 10° NNW 02:57:08 16° NNW 02:57:08 16° NNW
Cosmos 1464 Rocket 4.0 02:52:20 10° N 02:58:33 88° ENE 03:04:41 10° S
H-2A R/B 4.0 02:55:51 10° N 02:58:58 31° NW 02:58:58 31° NW
SL-16 R/B 2.4 02:55:01 10° SSW 03:00:42 78° ESE 03:06:25 10° NE
SWARM C 4.4 02:58:15 10° S 03:01:34 79° W 03:04:54 10° N
SWARM A 4.1 02:58:21 10° S 03:01:41 88° E 03:05:01 10° N
Cosmos 1624 Rocket 3.9 02:56:49 10° SSW 03:01:59 74° WNW 03:07:12 10° NNE
Cosmos 1420 Rocket 4.2 02:57:42 15° SW 03:02:02 51° NW 03:07:13 10° NNE
Cosmos 332 Rocket 3.7 02:58:13 14° NNW 03:02:25 80° WSW 03:07:11 10° SSE
NOSS 3-2 (C) 4.2 02:59:05 18° NW 03:04:23 65° NNE 03:12:37 10° ESE
SL-08 RB Rocket 4.4 03:00:48 10° N 03:04:45 30° WNW 03:06:14 25° W
Helios 1A Rocket 3.0 03:01:47 10° SSW 03:04:56 35° W 03:05:20 34° W
Cosmos 1378 Rocket 3.4 03:00:43 10° S 03:04:59 90° NNW 03:09:18 10° NNE
Cosmos 2242 Rocket 3.5 03:02:19 10° SSW 03:06:39 61° WNW 03:11:05 10° N
NOSS 0 Rocket 4.5 03:04:17 22° W 03:07:38 39° NW 03:13:25 10° NNE
Okean 1 Rocket 3.1 03:03:21 10° N 03:07:42 83° ENE 03:12:01 10° SSE
Cosmos 2346 Rocket 4.4 03:02:59 10° SSW 03:09:00 58° WNW 03:15:01 10° N
Cosmos 2034 Rocket 4.2 03:03:33 10° N 03:09:56 77° ENE 03:16:18 10° SSE
Cosmos 1812 3.8 03:14:35 17° SW 03:14:35 17° SW 03:15:38 10° SSW
Meteor 2-1 Rocket 4.4 03:07:30 10° NNW 03:13:30 86° E 03:19:19 10° SSE
NOSS 2-1 (E) 4.2 03:16:17 20° NNW 03:16:51 21° NNW 03:19:18 10° NE
NOSS 2-2 (D) 3.3 03:14:49 23° NW 03:17:02 84° SW 03:21:46 10° SE
Cosmos 1452 Rocket 4.3 03:12:44 10° S 03:17:49 54° ESE 03:22:55 10° NNE
CZ-2C R/B 3.5 03:14:49 10° N 03:18:53 25° WNW 03:21:33 17° W
Cosmos 1850 Rocket 4.1 03:14:12 11° NNW 03:19:04 56° WSW 03:24:06 10° S
PKM 4.1 03:19:13 18° WNW 03:23:02 64° SSW 03:25:53 10° SE
COSMOS 2428 3.9 03:21:07 18° WNW 03:23:42 24° NNW 03:28:18 10° NNE
USA 267 3.3 03:17:30 10° ENE 03:24:06 86° SSE 03:30:40 10° WSW
Cosmos 1939 Rocket 3.9 03:21:27 10° N 03:24:33 23° WNW 03:26:12 18° W
NOSS 3-2 (A) 4.0 03:19:10 14° NW 03:25:20 76° SW 03:33:53 10° SE
Cosmos 1980 Rocket 4.1 03:21:19 10° NNW 03:25:26 20° NNE 03:29:30 10° ENE
Cosmos 1980 4.4 03:22:38 16° W 03:26:27 34° NW 03:31:37 10° NNE
USA 229 DEB 3.9 03:20:39 10° SW 03:26:38 70° SE 03:33:28 10° NE
USA 229 3.9 03:20:51 10° SW 03:26:51 70° SE 03:33:41 10° NE
IGS 5A 3.8 03:24:09 10° NNE 03:28:11 65° ESE 03:32:09 10° S
Cosmos 2084 3.4 03:28:09 18° WNW 03:31:05 62° SW 03:35:03 10° SE
Cosmos 1331 Rocket 4.1 03:26:58 10° SSW 03:32:13 82° ESE 03:37:28 10° NNE
Meteor 1-11 4.3 03:28:59 10° SSW 03:34:51 85° WNW 03:40:44 10° NNE
ARGOS 4.5 03:33:24 10° N 03:37:11 20° NW 03:40:21 12° W
Cosmos 1356 Rocket 4.4 03:33:29 10° N 03:37:27 48° ENE 03:41:25 10° SSE
Cosmos 2297 4.5 03:36:02 11° NW 03:40:40 32° WSW 03:45:35 10° SSW
CZ-2D R/B 4.4 03:37:47 10° NNE 03:40:47 38° E 03:43:46 10° S
CBERS-1 4.1 03:35:59 10° NNE 03:41:09 83° ESE 03:46:17 10° SSW
NOSS 3-1 (A) 3.8 03:37:27 14° W 03:41:54 44° NNW 03:48:18 10° NE
Cosmos 2237 Rocket 3.0 03:37:34 12° W 03:42:06 30° NW 03:47:03 10° NNE
SMAP 3.9 03:37:46 10° NNE 03:42:23 55° E 03:46:57 10° S
Cosmos 1441 Rocket 3.9 03:40:06 10° S 03:43:20 49° E 03:46:35 10° NNE
Okean 2 Rocket 3.5 03:40:59 10° NNW 03:45:03 39° W 03:49:07 10° SSW
Cosmos 2369 Rocket 3.1 03:41:30 11° NW 03:46:12 29° WSW 03:51:01 10° SSW
CENTAUR R/B 3.8 03:40:00 11° NW 03:47:21 42° WSW 03:55:54 10° S
ATLAS 3B R/B 3.1 03:40:33 10° SW 03:48:14 88° SE 03:56:12 10° NE
SAR-Lupe-4 4.5 03:46:23 10° NNE 03:49:55 53° ESE 03:53:23 10° S
Cosmos 2056 Rocket 4.1 03:46:01 10° WSW 03:51:02 37° NW 03:56:02 10° NNE
Cosmos 1943 3.5 03:46:05 10° SSW 03:51:41 74° ESE 03:57:18 10° NE
IRS-1D 4.1 03:51:03 10° N 03:55:23 31° WNW 03:59:41 10° WSW
Orbus 7S? 2.8 03:51:44 10° W 03:55:39 71° NNW 03:58:17 10° ENE
Cosmos 2360 Rocket 4.1 03:53:40 10° NW 03:56:53 15° N 04:00:07 10° NE
USA 238 DEB 4.3 03:51:07 10° NW 03:58:02 58° NNE 04:05:43 10° ESE
USA 238 4.3 03:51:13 10° NW 03:58:09 58° NNE 04:05:49 10° ESE
Cosmos 1315 Rocket 2.9 03:54:36 10° NNW 03:58:28 77° ENE 04:02:19 10° SSE
COSMO-SKYMED 1 4.0 03:57:47 10° SW 04:00:32 17° W 04:03:18 10° NW
Iridium 45 4.4 03:58:01 10° NNW 04:01:09 51° W 04:04:15 10° SSW
Cosmos 2228 3.2 03:57:21 10° N 04:01:37 75° ENE 04:05:52 10° SSE
Cosmos 292 Rocket 4.0 03:57:42 10° NW 04:02:20 50° WSW 04:06:56 10° S
Cosmos 2322 Rocket 4.1 03:59:06 10° NNW 04:02:25 15° N 04:05:45 10° NE
NOSS 2-3 (C) 4.5 03:58:53 10° NW 04:03:20 57° NNE 04:09:25 10° ESE
Cosmos 2333 Rocket 4.1 04:00:55 10° NNW 04:04:31 17° N 04:08:07 10° NE
Cosmos 1544 Rocket 4.5 04:00:30 10° N 04:04:49 52° ENE 04:09:09 10° SSE
Cosmos 1025 Rocket 3.4 04:05:59 10° SW 04:10:07 43° WNW 04:14:19 10° N
NOSS 2-3 (E) 4.3 04:06:16 10° NW 04:10:55 67° NE 04:17:07 10° ESE
Cosmos 1461 4.0 04:07:54 10° NW 04:11:32 32° NNE 04:15:06 10° E
NOSS 2-2 (E) 4.2 04:10:06 10° WNW 04:13:37 40° SW 04:18:16 10° SSE
SL-16 R/B 4.1 04:10:29 10° NNW 04:14:08 17° NNE 04:17:47 10° NE
MOS 1 Rocket 4.2 04:09:23 10° NNE 04:14:13 59° E 04:19:18 10° S
Cosmos 1674 Rocket 4.3 04:11:09 10° SW 04:15:05 31° WNW 04:19:03 10° N
